SCOUT X-4 DEB, 805

Orbit data source: Space-Track

SCOUT X-4 DEB, 805 is space debris in LEO originally from a launch on Thu, 04 Jun 1964 UTC launched from the Air Force Western Test Range (AFWTR). Debris objects in space refer to the collection of defunct objects orbiting the Earth. Examples of debris include non-operational satellites, rocket bodies, and fragments generated from explosions, collisions, or faulty payload assembly.

Loading next visibility...
Identifier
805, 1964-026B
Orbit
LEO
Country
Flag of USUS
Related business
Manufacturer
Unknown
Mission
Spacecraft
Bus & Motor
Unknown
Mass
Unknown
Launch date (UTC)
1964-06-04 (61 years ago)
Launch vehicle
Unknown
Launch site
Air Force Western Test Range (AFWTR)
Object type
Payload
Rocket body
Debris
Shape & HBR
Unknown shape, 0.1 m
Radar Cross Section
Small (<0.1 m²)

Expand to show TLE details & history
Last TLE update: 14 hours ago

TLE from 14 hours ago
0 SCOUT X-4 DEB
1   805U 64026B   25308.32871610  .00001807  00000-0  62648-3 0  9992
2   805  89.8603 332.6016 0028429 212.8435 147.0998 14.35106721157775
Epoch: 2025-11-04T07:53Z
TLE epoch observation values (Epoch: 2025-11-04T07:53:21.071Z)
Latitude
Longitude
170.44649°
Altitude
794.882 km
Speed
7.447 km/s
True Right ascension
22h 10m 24s
True Declination
0° 00' 00"
Sunlit
Object was in daylight at epoch
Visualization orbit readout
Latitude
Unknown
Longitude
Unknown
Altitude
Unknown
Speed
Unknown
Apparent Right ascension
Unknown
Apparent Declination
Unknown
Sunlit
N/A
Visualization observer readout
Local Sidereal Time
18:00:05
Azimuth
Unknown
Elevation
Unknown
Doppler factor
Unknown
Orbital elements
Apogee altitude
791.965 km
Perigee altitude
751.312 km
Semi-major axis
7,149.776 km
Eccentricity
0.00284
Inclination
89.8603°
RAAN
332.6016°
Arg. of periapsis
212.8435°
True anomaly
147.27623°
Mean anomaly
147.0998°
Eccentric anomaly
147.18807°
Mean motion
3.59008 °/min
Orbital period
100.28 mins
BSTAR
0.00062648
Loading maneuver chart data...
Computing Atmospheric mass density...
Loading historical data...
Loading historical data...
Loading historical data...
Loading historical data...
Loading historical data...
Loading historical data...
Loading historical data...

Documentation

Showing up to 5 results
|